SAS237 LHBP-EKCH

Flight info

Callsign SAS237
Flight time 1h 16m
Altitude 38000
Route LITKU Y301 KALIF DCT BILNA DCT REGLI L617 ADVAB L619 DENKO L996 ROE M743 TIDVU
Aircraft A20N/M-SDE2E3FGHIRWXY/LB1

Departure

Time 2026-05-04 19:15
Airport Budapest Liszt Ferenc International Airport (LHBP)

Arrival

Time 2026-05-04 20:31
Airport Copenhagen Kastrup Airport (EKCH)
Time Latitude Longitude Altitude Speed Heading
2026-05-04 18:38 47.43422 19.26300 456 ft 0 kts 222°
2026-05-04 18:39 47.43420 19.26297 456 ft 0 kts 222°
2026-05-04 19:01 47.43426 19.26305 457 ft 4 kts 221°
2026-05-04 19:01 47.43447 19.26329 455 ft 4 kts 208°
2026-05-04 19:01 47.43472 19.26341 456 ft 4 kts 168°
2026-05-04 19:01 47.43490 19.26324 455 ft 4 kts 132°
2026-05-04 19:02 47.43508 19.26295 455 ft 4 kts 132°
2026-05-04 19:02 47.43526 19.26266 454 ft 3 kts 133°
2026-05-04 19:02 47.43528 19.26264 454 ft 0 kts 133°
2026-05-04 19:07 47.43530 19.26261 454 ft 4 kts 132°
2026-05-04 19:07 47.43546 19.26230 456 ft 4 kts 118°
2026-05-04 19:07 47.43555 19.26193 457 ft 4 kts 94°
2026-05-04 19:08 47.43552 19.26155 457 ft 4 kts 58°
2026-05-04 19:08 47.43545 19.26141 457 ft 0 kts 42°
2026-05-04 19:11 47.43553 19.26152 455 ft 6 kts 42°
2026-05-04 19:11 47.43616 19.26236 457 ft 16 kts 42°
2026-05-04 19:11 47.43695 19.26344 456 ft 15 kts 42°
2026-05-04 19:12 47.43775 19.26418 457 ft 12 kts 352°
2026-05-04 19:12 47.43916 19.26219 458 ft 13 kts 326°
2026-05-04 19:12 47.43989 19.26251 458 ft 8 kts 43°
2026-05-04 19:13 47.44000 19.26266 460 ft 0 kts 43°
2026-05-04 19:13 47.44008 19.26277 460 ft 8 kts 43°
2026-05-04 19:14 47.44069 19.26418 471 ft 23 kts 80°
2026-05-04 19:14 47.44020 19.26605 470 ft 0 kts 133°
2026-05-04 19:14 47.43985 19.26661 469 ft 30 kts 133°
2026-05-04 19:14 47.43686 19.27145 472 ft 95 kts 133°
2026-05-04 19:15 47.43116 19.28061 457 ft 145 kts 133°
2026-05-04 19:15 47.42373 19.29252 768 ft 155 kts 134°
2026-05-04 19:15 47.41679 19.30435 1320 ft 159 kts 126°
2026-05-04 19:15 47.41125 19.31924 1807 ft 168 kts 120°
2026-05-04 19:16 47.40618 19.33495 2339 ft 175 kts 120°
2026-05-04 19:16 47.40043 19.35184 2671 ft 194 kts 122°
2026-05-04 19:16 47.39382 19.36998 3022 ft 214 kts 122°
2026-05-04 19:16 47.38615 19.39027 3429 ft 237 kts 121°
2026-05-04 19:17 47.38177 19.41430 4300 ft 250 kts 92°
2026-05-04 19:17 47.38577 19.43926 5330 ft 256 kts 63°
2026-05-04 19:17 47.39717 19.45977 6270 ft 265 kts 44°
2026-05-04 19:17 47.41122 19.47886 6882 ft 283 kts 41°
2026-05-04 19:18 47.42676 19.49727 7749 ft 289 kts 29°
2026-05-04 19:18 47.44588 19.50641 8694 ft 293 kts
2026-05-04 19:18 47.46633 19.50854 9626 ft 297 kts
2026-05-04 19:18 47.48723 19.50915 10446 ft 307 kts
2026-05-04 19:19 47.50937 19.51016 10825 ft 330 kts
2026-05-04 19:19 47.53308 19.51211 11237 ft 350 kts
2026-05-04 19:19 47.55754 19.51477 12061 ft 354 kts
2026-05-04 19:19 47.58215 19.51773 12938 ft 357 kts
2026-05-04 19:20 47.60705 19.52083 13811 ft 361 kts
2026-05-04 19:20 47.63221 19.52398 14587 ft 364 kts
2026-05-04 19:20 47.65755 19.52714 15377 ft 367 kts
2026-05-04 19:20 47.68309 19.53031 16159 ft 370 kts
2026-05-04 19:21 47.70886 19.53350 16924 ft 373 kts
2026-05-04 19:21 47.73482 19.53671 17675 ft 376 kts
2026-05-04 19:21 47.76100 19.53995 18417 ft 379 kts
2026-05-04 19:21 47.78746 19.54323 19060 ft 383 kts
2026-05-04 19:22 47.81410 19.54653 19694 ft 386 kts
2026-05-04 19:22 47.84095 19.54986 20338 ft 389 kts
2026-05-04 19:22 47.86799 19.54832 20935 ft 391 kts 348°
2026-05-04 19:22 47.89382 19.53545 21553 ft 393 kts 334°
2026-05-04 19:23 47.91816 19.51653 22152 ft 396 kts 330°
2026-05-04 19:23 47.94241 19.49659 22775 ft 400 kts 330°
2026-05-04 19:23 47.96685 19.47740 23376 ft 403 kts 332°
2026-05-04 19:23 47.99203 19.45868 23917 ft 406 kts 333°
2026-05-04 19:24 48.01761 19.44035 24401 ft 410 kts 334°
2026-05-04 19:24 48.04350 19.42212 24920 ft 412 kts 334°
2026-05-04 19:24 48.06954 19.40389 25345 ft 415 kts 334°
2026-05-04 19:24 48.09569 19.38558 25596 ft 416 kts 334°
2026-05-04 19:25 48.12191 19.36720 25846 ft 417 kts 334°
2026-05-04 19:25 48.14818 19.34873 26097 ft 418 kts 334°
2026-05-04 19:25 48.17453 19.33018 26348 ft 419 kts 334°
2026-05-04 19:25 48.20098 19.31152 26601 ft 420 kts 334°
2026-05-04 19:26 48.22749 19.29281 26858 ft 422 kts 334°
2026-05-04 19:26 48.25405 19.27403 27115 ft 423 kts 334°
2026-05-04 19:26 48.28076 19.25514 27374 ft 425 kts 334°
2026-05-04 19:26 48.30754 19.23619 27652 ft 427 kts 334°
2026-05-04 19:27 48.33446 19.21712 28150 ft 427 kts 334°
2026-05-04 19:27 48.36140 19.19800 28600 ft 429 kts 334°
2026-05-04 19:27 48.38851 19.17871 28986 ft 432 kts 334°
2026-05-04 19:27 48.41575 19.15931 29378 ft 434 kts 334°
2026-05-04 19:28 48.44316 19.13978 29743 ft 437 kts 334°
2026-05-04 19:28 48.47069 19.12013 30127 ft 439 kts 334°
2026-05-04 19:28 48.49837 19.10034 30457 ft 441 kts 334°
2026-05-04 19:28 48.52617 19.08046 30798 ft 443 kts 334°
2026-05-04 19:29 48.55406 19.06048 31145 ft 445 kts 334°
2026-05-04 19:29 48.58205 19.04041 31556 ft 444 kts 334°
2026-05-04 19:29 48.60993 19.02039 32020 ft 443 kts 333°
2026-05-04 19:29 48.63772 19.00042 32432 ft 442 kts 333°
2026-05-04 19:30 48.66537 18.98051 32975 ft 438 kts 333°
2026-05-04 19:30 48.69281 18.96074 33448 ft 436 kts 333°
2026-05-04 19:30 48.72019 18.94098 33872 ft 435 kts 333°
2026-05-04 19:30 48.74747 18.92127 34239 ft 434 kts 333°
2026-05-04 19:31 48.77471 18.90156 34566 ft 434 kts 333°
2026-05-04 19:31 48.80195 18.88184 34852 ft 434 kts 333°
2026-05-04 19:31 48.82916 18.86211 35145 ft 433 kts 333°
2026-05-04 19:31 48.85636 18.84236 35431 ft 433 kts 333°
2026-05-04 19:32 48.88352 18.82262 35675 ft 434 kts 333°
2026-05-04 19:32 48.91073 18.80282 35932 ft 434 kts 333°
2026-05-04 19:32 48.93793 18.78300 36199 ft 433 kts 333°
2026-05-04 19:32 48.96512 18.76317 36454 ft 433 kts 333°
2026-05-04 19:33 48.99217 18.74342 36809 ft 430 kts 333°
2026-05-04 19:33 49.01913 18.72371 37074 ft 430 kts 333°
2026-05-04 19:33 49.04609 18.70397 37283 ft 430 kts 333°
2026-05-04 19:33 49.07308 18.68418 37487 ft 430 kts 333°
2026-05-04 19:34 49.10003 18.66440 37720 ft 430 kts 333°
2026-05-04 19:34 49.12697 18.64461 37950 ft 430 kts 333°
2026-05-04 19:34 49.14516 18.63123 38032 ft 430 kts 333°
2026-05-04 19:35 49.19902 18.59154 38027 ft 429 kts 333°
2026-05-04 19:35 49.25241 18.55211 38023 ft 429 kts 333°
2026-05-04 19:36 49.30614 18.51235 38021 ft 428 kts 332°
2026-05-04 19:36 49.35975 18.47258 38018 ft 428 kts 332°
2026-05-04 19:37 49.41349 18.43288 38016 ft 429 kts 333°
2026-05-04 19:37 49.46795 18.39490 38017 ft 430 kts 334°
2026-05-04 19:38 49.52250 18.35693 38001 ft 430 kts 333°
2026-05-04 19:38 49.57698 18.31863 38002 ft 430 kts 333°
2026-05-04 19:39 49.63140 18.28021 38004 ft 430 kts 333°
2026-05-04 19:39 49.68571 18.24179 37993 ft 428 kts 333°
2026-05-04 19:40 49.73985 18.20336 37993 ft 429 kts 333°
2026-05-04 19:40 49.79404 18.16482 37993 ft 428 kts 333°
2026-05-04 19:41 49.84817 18.12622 37991 ft 428 kts 333°
2026-05-04 19:41 49.90233 18.08751 37989 ft 429 kts 333°
2026-05-04 19:42 49.95651 18.04869 37976 ft 429 kts 333°
2026-05-04 19:42 50.01130 18.01173 37977 ft 431 kts 338°
2026-05-04 19:43 50.06818 17.98194 37977 ft 431 kts 337°
2026-05-04 19:43 50.12408 17.94825 37978 ft 431 kts 336°
2026-05-04 19:44 50.18012 17.91498 37980 ft 431 kts 337°
2026-05-04 19:44 50.23641 17.88249 37968 ft 432 kts 337°
2026-05-04 19:45 50.29244 17.85030 37968 ft 432 kts 337°
2026-05-04 19:45 50.34883 17.81781 37963 ft 432 kts 337°
2026-05-04 19:46 50.40518 17.78522 37960 ft 432 kts 337°
2026-05-04 19:46 50.46155 17.75252 37954 ft 432 kts 337°
2026-05-04 19:47 50.51793 17.71972 37952 ft 432 kts 337°
2026-05-04 19:47 50.57428 17.68686 37949 ft 432 kts 337°
2026-05-04 19:48 50.63063 17.65392 37951 ft 432 kts 337°
2026-05-04 19:48 50.68701 17.62087 37947 ft 432 kts 337°
2026-05-04 19:49 50.74336 17.58776 37945 ft 432 kts 337°
2026-05-04 19:49 50.79973 17.55456 37941 ft 432 kts 336°
2026-05-04 19:50 50.85608 17.52127 37939 ft 432 kts 336°
2026-05-04 19:50 50.91247 17.48787 37937 ft 432 kts 336°
2026-05-04 19:51 50.96879 17.45443 37939 ft 432 kts 336°
2026-05-04 19:51 51.02511 17.42091 37942 ft 432 kts 336°
2026-05-04 19:52 51.08142 17.38730 37936 ft 432 kts 336°
2026-05-04 19:52 51.13765 17.35365 37940 ft 432 kts 336°
2026-05-04 19:53 51.19395 17.31989 37944 ft 432 kts 336°
2026-05-04 19:53 51.25022 17.28604 37945 ft 432 kts 336°
2026-05-04 19:54 51.30649 17.25210 37934 ft 432 kts 336°
2026-05-04 19:54 51.36273 17.21809 37928 ft 432 kts 335°
2026-05-04 19:55 51.41894 17.18400 37946 ft 431 kts 335°
2026-05-04 19:55 51.47508 17.14988 37937 ft 431 kts 335°
2026-05-04 19:56 51.53123 17.11565 37935 ft 431 kts 335°
2026-05-04 19:56 51.58731 17.08140 37940 ft 431 kts 335°
2026-05-04 19:57 51.64341 17.04702 37935 ft 431 kts 335°
2026-05-04 19:57 51.69939 17.01262 37936 ft 431 kts 335°
2026-05-04 19:58 51.75564 16.97797 37934 ft 430 kts 335°
2026-05-04 19:58 51.96440 16.84855 37931 ft 430 kts 335°
2026-05-04 19:59 52.18860 16.70812 37935 ft 432 kts 335°
2026-05-04 19:59 52.45314 16.54079 37969 ft 428 kts 334°
2026-05-04 20:00 52.72913 16.36380 37969 ft 430 kts 334°
2026-05-04 20:00 52.95275 16.21784 37958 ft 433 kts 334°
2026-05-04 20:01 53.17692 16.07044 37966 ft 434 kts 333°
2026-05-04 20:01 53.40131 15.92123 37973 ft 433 kts 333°
2026-05-04 20:02 53.62546 15.77046 37968 ft 434 kts 333°
2026-05-04 20:02 53.85005 15.61766 37968 ft 436 kts 333°
2026-05-04 20:03 53.94584 15.55195 37971 ft 437 kts 333°
2026-05-04 20:03 54.00221 15.51313 37977 ft 437 kts 333°
2026-05-04 20:04 54.05864 15.47416 37973 ft 439 kts 333°
2026-05-04 20:04 54.11522 15.43496 37978 ft 439 kts 333°
2026-05-04 20:05 54.23042 15.35480 37983 ft 440 kts 333°
2026-05-04 20:05 54.33058 15.28473 37982 ft 442 kts 333°
2026-05-04 20:06 54.38746 15.24476 37984 ft 442 kts 332°
2026-05-04 20:06 54.44426 15.20472 37982 ft 441 kts 332°
2026-05-04 20:07 54.59028 15.10125 37991 ft 441 kts 332°
2026-05-04 20:07 54.61859 15.08110 37773 ft 439 kts 332°
2026-05-04 20:07 54.64682 15.06099 37186 ft 439 kts 332°
2026-05-04 20:07 54.67515 15.04076 36402 ft 442 kts 332°
2026-05-04 20:08 54.70364 15.02037 35527 ft 445 kts 331°
2026-05-04 20:08 54.73235 14.99982 34699 ft 447 kts 331°
2026-05-04 20:08 54.76107 14.97926 33940 ft 446 kts 330°
2026-05-04 20:08 54.78969 14.95875 33058 ft 445 kts 330°
2026-05-04 20:09 54.81825 14.93824 32155 ft 445 kts 330°
2026-05-04 20:09 54.84683 14.91766 31253 ft 444 kts 330°
2026-05-04 20:09 54.87537 14.89710 30407 ft 443 kts 329°
2026-05-04 20:09 54.90379 14.87666 29483 ft 442 kts 329°
2026-05-04 20:10 54.93204 14.85627 28768 ft 436 kts 329°
2026-05-04 20:10 54.95967 14.83634 28357 ft 424 kts 329°
2026-05-04 20:10 54.98668 14.81684 27823 ft 416 kts 329°
2026-05-04 20:10 55.01319 14.79758 27281 ft 409 kts 329°
2026-05-04 20:11 55.03857 14.77701 26747 ft 395 kts 321°
2026-05-04 20:11 55.06017 14.74915 26250 ft 377 kts 309°
2026-05-04 20:11 55.07713 14.71556 25768 ft 363 kts 299°
2026-05-04 20:11 55.08946 14.67810 25297 ft 352 kts 291°
2026-05-04 20:12 55.10042 14.64026 24829 ft 347 kts 292°
2026-05-04 20:12 55.11137 14.60299 24371 ft 343 kts 292°
2026-05-04 20:12 55.12225 14.56599 23913 ft 348 kts 292°
2026-05-04 20:12 55.13362 14.52692 23591 ft 369 kts 292°
2026-05-04 20:13 55.14532 14.48683 23446 ft 370 kts 292°
2026-05-04 20:13 55.15692 14.44713 22805 ft 373 kts 293°
2026-05-04 20:13 55.16878 14.40638 21811 ft 381 kts 294°
2026-05-04 20:13 55.18077 14.36506 21145 ft 378 kts 294°
2026-05-04 20:14 55.19252 14.32466 20790 ft 367 kts 294°
2026-05-04 20:14 55.20396 14.28525 20322 ft 360 kts 294°
2026-05-04 20:14 55.21516 14.24656 19832 ft 354 kts 294°
2026-05-04 20:14 55.22619 14.20833 19337 ft 349 kts 294°
2026-05-04 20:15 55.23706 14.17060 18860 ft 344 kts 294°
2026-05-04 20:15 55.24777 14.13332 18380 ft 340 kts 294°
2026-05-04 20:15 55.25838 14.09638 17870 ft 336 kts 294°
2026-05-04 20:15 55.26881 14.06000 17362 ft 332 kts 294°
2026-05-04 20:16 55.27915 14.02394 16852 ft 329 kts 293°
2026-05-04 20:16 55.28933 13.98837 16352 ft 325 kts 293°
2026-05-04 20:16 55.29942 13.95304 15861 ft 322 kts 293°
2026-05-04 20:16 55.30941 13.91803 15372 ft 319 kts 293°
2026-05-04 20:17 55.31931 13.88328 14885 ft 317 kts 293°
2026-05-04 20:17 55.32922 13.84884 14309 ft 317 kts 296°
2026-05-04 20:17 55.34261 13.81686 13377 ft 332 kts 306°
2026-05-04 20:17 55.35739 13.78547 12683 ft 333 kts 306°
2026-05-04 20:18 55.37219 13.75468 12310 ft 325 kts 307°
2026-05-04 20:18 55.38186 13.73475 11997 ft 322 kts 307°
2026-05-04 20:18 55.39645 13.70482 11384 ft 322 kts 307°
2026-05-04 20:18 55.41102 13.67497 10822 ft 321 kts 307°
2026-05-04 20:19 55.42551 13.64529 10323 ft 318 kts 307°
2026-05-04 20:19 55.43970 13.61625 10138 ft 306 kts 307°
2026-05-04 20:19 55.45328 13.58845 10016 ft 292 kts 307°
2026-05-04 20:19 55.46621 13.56192 9901 ft 279 kts 307°
2026-05-04 20:20 55.47863 13.53639 9649 ft 271 kts 307°
2026-05-04 20:20 55.49080 13.51126 9229 ft 269 kts 307°
2026-05-04 20:20 55.50291 13.48623 8810 ft 267 kts 307°
2026-05-04 20:20 55.51494 13.46136 8409 ft 266 kts 307°
2026-05-04 20:21 55.52690 13.43662 8000 ft 264 kts 307°
2026-05-04 20:21 55.53879 13.41201 7604 ft 262 kts 307°
2026-05-04 20:21 55.56217 13.36361 7064 ft 250 kts 307°
2026-05-04 20:22 55.57319 13.34080 6935 ft 239 kts 307°
2026-05-04 20:22 55.58392 13.31852 6656 ft 236 kts 307°
2026-05-04 20:22 55.59454 13.29641 6330 ft 235 kts 307°
2026-05-04 20:22 55.60512 13.27436 5963 ft 235 kts 307°
2026-05-04 20:23 55.61567 13.25235 5619 ft 234 kts 307°
2026-05-04 20:23 55.62618 13.23044 5284 ft 233 kts 307°
2026-05-04 20:23 55.63649 13.20843 4954 ft 231 kts 304°
2026-05-04 20:23 55.64544 13.18494 4620 ft 230 kts 300°
2026-05-04 20:24 55.65398 13.16105 4278 ft 229 kts 300°
2026-05-04 20:24 55.66235 13.13732 4037 ft 224 kts 300°
2026-05-04 20:24 55.67075 13.11337 3992 ft 231 kts 300°
2026-05-04 20:24 55.67906 13.08966 3988 ft 229 kts 300°
2026-05-04 20:25 55.68748 13.06563 3991 ft 230 kts 300°
2026-05-04 20:25 55.69589 13.04164 3993 ft 229 kts 300°
2026-05-04 20:25 55.70421 13.01783 3966 ft 224 kts 300°
2026-05-04 20:25 55.71220 12.99491 3889 ft 213 kts 300°
2026-05-04 20:26 55.71976 12.97327 3786 ft 201 kts 300°
2026-05-04 20:26 55.72701 12.95249 3556 ft 196 kts 300°
2026-05-04 20:26 55.73413 12.93189 3277 ft 194 kts 300°
2026-05-04 20:26 55.74094 12.91193 3021 ft 184 kts 300°
2026-05-04 20:27 55.74607 12.89016 2995 ft 196 kts 277°
2026-05-04 20:27 55.74395 12.86639 2998 ft 197 kts 255°
2026-05-04 20:27 55.73969 12.84326 2978 ft 200 kts 245°
2026-05-04 20:27 55.73010 12.82541 2819 ft 202 kts 220°
2026-05-04 20:28 55.71885 12.81075 2513 ft 203 kts 220°
2026-05-04 20:28 55.70760 12.79495 2220 ft 201 kts 223°
2026-05-04 20:28 55.69755 12.77969 1946 ft 181 kts 225°
2026-05-04 20:28 55.68863 12.76579 1731 ft 165 kts 225°
2026-05-04 20:29 55.68040 12.75300 1498 ft 150 kts 225°
2026-05-04 20:29 55.67285 12.74125 1304 ft 139 kts 226°
2026-05-04 20:29 55.66547 12.72973 1113 ft 140 kts 225°
2026-05-04 20:29 55.65820 12.71844 916 ft 139 kts 225°
2026-05-04 20:30 55.65089 12.70710 728 ft 141 kts 224°
2026-05-04 20:30 55.64363 12.69560 561 ft 139 kts 224°
2026-05-04 20:30 55.63625 12.68425 370 ft 141 kts 223°
2026-05-04 20:30 55.62893 12.67307 174 ft 139 kts 224°
2026-05-04 20:31 55.62169 12.66178 28 ft 136 kts 224°
2026-05-04 20:31 55.61551 12.65215 24 ft 84 kts 221°
2026-05-04 20:31 55.61315 12.64821 24 ft 27 kts 232°
2026-05-04 20:31 55.61245 12.64564 25 ft 20 kts 249°
2026-05-04 20:32 55.61210 12.64382 24 ft 15 kts 251°
2026-05-04 20:32 55.61190 12.64199 24 ft 15 kts 281°
2026-05-04 20:32 55.61269 12.64113 23 ft 14 kts 12°
2026-05-04 20:32 55.61364 12.64207 24 ft 17 kts 33°
2026-05-04 20:33 55.61474 12.64331 25 ft 20 kts 32°
2026-05-04 20:33 55.61587 12.64457 23 ft 19 kts 33°
2026-05-04 20:33 55.61700 12.64587 27 ft 19 kts 33°
2026-05-04 20:33 55.61819 12.64728 25 ft 22 kts 34°
2026-05-04 20:34 55.61939 12.64866 24 ft 22 kts 33°
2026-05-04 20:34 55.62065 12.65011 26 ft 20 kts 33°
2026-05-04 20:34 55.62132 12.65089 24 ft 0 kts 33°
2026-05-04 20:35 55.62134 12.65091 24 ft 2 kts 33°
2026-05-04 20:35 55.62181 12.65146 25 ft 13 kts 33°
2026-05-04 20:36 55.62266 12.65110 26 ft 16 kts 302°
2026-05-04 20:36 55.62329 12.64936 24 ft 18 kts 304°
2026-05-04 20:36 55.62399 12.64747 23 ft 14 kts 303°
2026-05-04 20:36 55.62466 12.64664 25 ft 13 kts 346°
2026-05-04 20:37 55.62567 12.64650 25 ft 16 kts
2026-05-04 20:37 55.62636 12.64652 23 ft 5 kts 332°
2026-05-04 20:37 55.62644 12.64608 23 ft 3 kts 273°
2026-05-04 20:37 55.62647 12.64572 26 ft 2 kts 279°
2026-05-04 20:38 55.62648 12.64559 25 ft 0 kts 280°
2026-05-04 20:38 55.62649 12.64555 23 ft 0 kts 280°